Hourly Data Report for April 03, 2005

TORONTO CITY
ONTARIO

43°40'00.000" N
79°24'00.000" W
112.50 m
6158355
71508
XTO

Download Data

Hourly Data (April 2005)
Hourly Data Report for April 3, 2005
TIME
LST
Temp Definition
°C
Dew Point Definition
°C
Rel Hum Definition
%
Precip. Amount Definition
mm

Wind Dir Definition
10's deg

Wind Spd Definition
km/h
Visibility Definition
km
Stn Press Definition
kPa
Hmdx Definition


Wind Chill Definition


Weather Definition


00:00 1.5 0.8 95   LegendMM LegendMM   98.21     LegendNANA
01:00 1.4 0.6 94   LegendMM LegendMM   98.08     LegendNANA
02:00 1.5 0.7 94   LegendMM LegendMM   97.94     LegendNANA
03:00 1.6 0.7 94   LegendMM LegendMM   97.86     LegendNANA
04:00 1.6 0.8 94   LegendMM LegendMM   97.79     LegendNANA
05:00 1.8 0.6 92   LegendMM LegendMM   97.81     LegendNANA
06:00 1.6 0.7 94   LegendMM LegendMM   97.75     LegendNANA
07:00 1.4 0.6 94   LegendMM LegendMM   97.80     LegendNANA
08:00 1.4 0.6 94   LegendMM LegendMM   97.82     LegendNANA
09:00 2.0 0.9 92   LegendMM LegendMM   97.88     LegendNANA
10:00 1.8 0.7 92   LegendMM LegendMM   97.95     LegendNANA
11:00 1.6 0.8 94   LegendMM LegendMM   98.00     LegendNANA
12:00 1.6 1.0 96   LegendMM LegendMM   98.07     LegendNANA
13:00 1.8 1.1 95   LegendMM LegendMM   98.17     LegendNANA
14:00 1.8 1.3 96   LegendMM LegendMM   98.22     LegendNANA
15:00 2.7 1.8 94   LegendMM LegendMM   98.31     LegendNANA
16:00 3.2 1.7 90   LegendMM LegendMM   98.41     LegendNANA
17:00 3.2 1.5 89   LegendMM LegendMM   98.54     LegendNANA
18:00 3.3 1.6 89   LegendMM LegendMM   98.70     LegendNANA
19:00 3.3 1.2 86   LegendMM LegendMM   98.81     LegendNANA
20:00 2.5 1.1 90   LegendMM LegendMM   98.94     LegendNANA
21:00 2.7 1.4 91   LegendMM LegendMM   99.02     LegendNANA
22:00 2.9 1.5 90   LegendMM LegendMM   99.05     LegendNANA
23:00 3.3 1.6 89   LegendMM LegendMM   99.11     LegendNANA

Notes on Data Quality.

Legend

  • E = Estimated
  • M = Missing
  • NA = Not Available*
  • [empty] = Indicates an unobserved value
Date modified: